Location: Normandy Village
(37.8755°N, 122.2655°W)
Time: 11:14:39
(UTC+00:00)

Shenzhou-11 Module - Pass Details

Date: 12 December 2019
Orbit: 302 x 316 km, 42.8° (Epoch: 20 January)

Event Time Altitude Azimuth Distance (km) Brightness Sun altitude
Rises 02:32:35 0° 292° (WNW) 2,062 6.6 -19.6°
Reaches altitude 10° 02:34:35 10° 291° (WNW) 1,226 5.4 -20.0°
Enters shadow 02:36:32 41° 285° (WNW) 476 2.9 -20.4°
